"Pseudo-MPEC" for P222Fkx

Created 2024 Dec 3 2:31:23 UT using Find_Orb

Click here for an explanation of pseudo-MPECs

 
 Astrometry: 
     P222Fkx  C2024 10 22.28078200 36 44.413+04 34 01.05   ~C2Nl 22.30GVNEOCPF52
     P222Fkx  C2024 10 22.29271700 36 43.944+04 34 16.54   ~C2Nl 22.92GVNEOCPF52
     P222Fkx  C2024 10 22.30466700 36 43.456+04 34 31.63   ~C2Nl 22.86GVNEOCPF52
     P222Fkx  C2024 11 17.22014300 48 54.378+20 59 14.74   ~C2Nl 22.78GVNEOCPF52
     P222Fkx  C2024 11 20.21257200 55 25.381+23 57 44.41   ~C2Nl 21.95GVNEOCPF52
     P222Fkx  C2024 11 20.23808200 55 28.396+23 59 21.06   ~C2Nl 21.88GVNEOCPF52
     P222Fkx  C2024 11 20.25086500 55 29.907+24 00 09.50   ~C2Nl 21.14GVNEOCPF52
     P222Fkx* C2024 11 29.22016901 26 18.820+33 52 00.55   ~BT92 22.06wXNEOCPF52
     P222Fkx  C2024 11 29.23157501 26 21.564+33 52 48.71   ~BT92 21.80wXNEOCPF52
     P222Fkx  C2024 11 29.24300501 26 24.297+33 53 36.84   ~BT92 21.87wXNEOCPF52
     P222Fkx  C2024 11 29.37238901 26 54.889+34 02 25.04   ~BTL2 22.02GVNEOCPF51
     P222Fkx  C2024 11 29.37303001 26 55.057+34 02 27.77   ~BTL2 22.57GVNEOCPF51
     P222Fkx KC2024 11 30.12672601 30 29.65 +34 53 24.1    ~BU3l 21.7 GVNEOCPH21
     P222Fkx KC2024 11 30.13258201 30 31.13 +34 53 47.7    ~BU3l 22.0 GVNEOCPH21
     P222Fkx KC2024 11 30.13592501 30 31.96 +34 54 01.3    ~BU3l 22.2 GVNEOCPH21
     P222Fkx KB2024 11 30.79022 01 33 46.43 +35 38 17.0    ~BUK2x      ZNEOCP106
     P222Fkx KB2024 11 30.79697 01 33 48.11 +35 38 43.6    ~BUK2       ZNEOCP106
     P222Fkx KB2024 11 30.80388 01 33 50.02 +35 39 11.1    ~BUK2       ZNEOCP106
     P222Fkx KB2024 11 30.81081 01 33 51.75 +35 39 42.3    ~BUK2x      ZNEOCP106
     P222Fkx KB2024 12 01.74913601 38 43.31 +36 42 52.4    ~C1MH       VNEOCP204
     P222Fkx KB2024 12 01.79725501 38 57.30 +36 46 11.2    ~C1MH 22.0 GVNEOCP204

Station data:
(106) Črni Vrh  (N45.945905 E14.071100)  Slovenia.  Observer J. Skvarč. 0.6-m
   f/3.3 Deltagraph + CCD.
(204) Schiaparelli Observatory  (N45.868292 E8.769720)  Italy.  Observer L.
   Buzzi. 0.60-m f/4.64 Newtonian + CCD0.84-m f/3.5 reflector + CCD.
(F51) Pan-STARRS 1, Haleakala  (N20.707234 W156.255910)  US/Hawaii.
   Observers J. Bulger, T. Lowe, A. Schultz, M. Willman. Measurers K.
   Chambers, S. Chastel, T. de Boer, L. Denneau, J. Fairlamb, H. Flewelling,
   M. Huber, C.-C. Lin, E. Magnier, Y. Ramanjooloo, R. Wainscoat, R. Weryk.
   1.8-m Ritchey-Chrétien + CCD.
(F52) Pan-STARRS 2, Haleakala  (N20.707382 W156.255910)  US/Hawaii.
   Observers J. Bulger, T. Dukes, T. Lowe, A. Schultz, M. Willman. Measurers
   K. Chambers, S. Chastel, T. de Boer, L. Denneau, J. Fairlamb, H.
   Flewelling, M. Huber, C.-C. Lin, E. Magnier, Y. Ramanjooloo, R. Wainscoat,
   R. Weryk. 1.8-m Ritchey-Chrétien + CCD.
(H21) Astronomical Research Observatory, Westfield  (N39.483054 W87.968270)
   US/Illinois.  Observer R. Holmes. Measurers S. Foglia, L. Buzzi, T.
   Linder, R. Holmes. 0.76-m f/3.0 astrograph + CCD0.81-m f/4.0 astrograph +
   CCD0.61-m f/4.5 astrograph + CCD0.40-m f/5.32 astrograph + CCD.

Orbital elements:  P222Fkx
   Perihelion 2024 Dec 4.28187 +/- 8.41e-5 TT =  6:45:53 (JD 2460648.78187)
Epoch 2024 Dec  1.0 TT = JDT 2460645.5   Earth MOID: 0.0927   Ma: 0.0056
M 358.83206047 +/- 0.00013          (J2000 ecliptic)             AutoNEOCP
n   0.35587595 +/- 4.57e-5          Peri.   44.95753 +/- 0.00017
a   1.97213643 +/- 0.000169         Node    24.70477 +/- 0.00025
e   0.4579858 +/- 4.28e-5           Incl.    3.51632 +/- 0.00027
P   2.76953                H 25.37  G  0.15   U  6.0
q 1.06892577 +/- 7.06e-6    Q 2.87534708 +/- 0.00033
19 of 21 observations 2024 Oct. 22-Dec. 1; mean residual 0".24
Residuals in arcseconds: 
241022 F52  .03+  .10-    241129 F52  .28-  .05-    241130 H21  .33-  .04+    
241022 F52  .05+  .16+    241129 F52  .04-  .01+    241130 106( 2.1+  1.2+)   
241022 F52  .08-  .00     241129 F52  .14+  .13+    241130 106  .24+  .04+    
241117 F52  .13-  .43-    241129 F51  .11-  .07-    241130 106  .71+  .83-    
241120 F52  .14+  .20+    241129 F51  .06+  .11+    241130 106( 1.1-  2.0+)   
241120 F52  .02-  .10+    241130 H21  .21+  .15+    241201 204  .20-  .26-    
241120 F52  .17+  .28+    241130 H21  .01-  .01-    241201 204  .04+  .01-    

Ephemerides (geocentric):
Date (UTC) HH   RA             Dec           delta  r     elong  mag " sig PA
---- --------  ------------   ------------  ------ ------ -----  --- --------
2024 12 03 03  01 46 13.394   +38 14 46.40  .10591 1.0690 139.9 22.1 .107 133
2024 12 03 04  01 46 27.647   +38 17 31.07  .10590 1.0690 139.9 22.1 .108 134
2024 12 03 05  01 46 41.933   +38 20 15.63  .10589 1.0690 139.9 22.1 .109 134
2024 12 03 06  01 46 56.250   +38 23 00.07  .10589 1.0690 140.0 22.1 .110 134
2024 12 03 07  01 47 10.600   +38 25 44.40  .10588 1.0690 140.0 22.1 .110 134
2024 12 03 08  01 47 24.981   +38 28 28.60  .10588 1.0690 140.0 22.1 .111 134
2024 12 03 09  01 47 39.395   +38 31 12.69  .10587 1.0690 140.0 22.1 .112 134
2024 12 03 10  01 47 53.840   +38 33 56.65  .10587 1.0690 140.0 22.1 .113 134
2024 12 03 11  01 48 08.318   +38 36 40.49  .10586 1.0690 140.0 22.1 .114 134
2024 12 03 12  01 48 22.828   +38 39 24.20  .10586 1.0690 140.0 22.1 .115 134
2024 12 03 13  01 48 37.369   +38 42 07.79  .10585 1.0690 140.0 22.1 .116 135
2024 12 03 14  01 48 51.943   +38 44 51.25  .10585 1.0690 140.0 22.1 .117 135
2024 12 03 15  01 49 06.549   +38 47 34.59  .10584 1.0690 140.0 22.1 .118 135
2024 12 03 16  01 49 21.187   +38 50 17.80  .10584 1.0689 140.0 22.1 .118 135
2024 12 03 17  01 49 35.857   +38 53 00.87  .10583 1.0689 140.0 22.1 .119 135
2024 12 03 18  01 49 50.560   +38 55 43.82  .10583 1.0689 140.0 22.1 .120 135
2024 12 03 19  01 50 05.294   +38 58 26.63  .10583 1.0689 140.0 22.1 .121 135
2024 12 03 20  01 50 20.061   +39 01 09.31  .10582 1.0689 140.0 22.1 .122 135
2024 12 03 21  01 50 34.860   +39 03 51.85  .10582 1.0689 140.0 22.1 .123 136
2024 12 03 22  01 50 49.691   +39 06 34.25  .10582 1.0689 140.0 22.1 .124 136
2024 12 03 23  01 51 04.555   +39 09 16.52  .10581 1.0689 140.1 22.1 .125 136
2024 12 04 00  01 51 19.451   +39 11 58.65  .10581 1.0689 140.1 22.1 .126 136
2024 12 04 01  01 51 34.379   +39 14 40.64  .10581 1.0689 140.1 22.1 .127 136
2024 12 04 02  01 51 49.339   +39 17 22.49  .10581 1.0689 140.1 22.1 .127 136
2024 12 04 03  01 52 04.331   +39 20 04.19  .10581 1.0689 140.1 22.1 .128 136
2024 12 04 04  01 52 19.356   +39 22 45.75  .10580 1.0689 140.1 22.1 .129 136
2024 12 04 05  01 52 34.413   +39 25 27.17  .10580 1.0689 140.1 22.1 .130 136
2024 12 04 06  01 52 49.502   +39 28 08.44  .10580 1.0689 140.1 22.1 .131 137
2024 12 04 07  01 53 04.624   +39 30 49.56  .10580 1.0689 140.1 22.1 .132 137
2024 12 04 08  01 53 19.778   +39 33 30.53  .10580 1.0689 140.1 22.1 .133 137
2024 12 04 09  01 53 34.964   +39 36 11.36  .10580 1.0689 140.1 22.1 .134 137
2024 12 04 10  01 53 50.183   +39 38 52.03  .10580 1.0689 140.1 22.1 .135 137
2024 12 04 11  01 54 05.434   +39 41 32.55  .10580 1.0689 140.1 22.1 .136 137
2024 12 04 12  01 54 20.717   +39 44 12.91  .10579 1.0689 140.1 22.1 .137 137
2024 12 04 13  01 54 36.033   +39 46 53.12  .10579 1.0689 140.1 22.1 .138 137
2024 12 04 14  01 54 51.381   +39 49 33.17  .10579 1.0689 140.2 22.1 .138 137
2024 12 04 15  01 55 06.762   +39 52 13.07  .10579 1.0689 140.2 22.1 .139 138
2024 12 04 16  01 55 22.175   +39 54 52.80  .10579 1.0689 140.2 22.1 .140 138
2024 12 04 17  01 55 37.620   +39 57 32.38  .10580 1.0689 140.2 22.1 .141 138
2024 12 04 18  01 55 53.097   +40 00 11.80  .10580 1.0689 140.2 22.1 .142 138
2024 12 04 19  01 56 08.607   +40 02 51.05  .10580 1.0689 140.2 22.1 .143 138
2024 12 04 20  01 56 24.150   +40 05 30.14  .10580 1.0689 140.2 22.1 .144 138
2024 12 04 21  01 56 39.724   +40 08 09.06  .10580 1.0689 140.2 22.1 .145 138
2024 12 04 22  01 56 55.332   +40 10 47.81  .10580 1.0689 140.2 22.1 .146 138
2024 12 04 23  01 57 10.971   +40 13 26.40  .10580 1.0690 140.2 22.1 .147 138
2024 12 05 00  01 57 26.643   +40 16 04.82  .10580 1.0690 140.2 22.1 .148 139
2024 12 05 01  01 57 42.347   +40 18 43.07  .10581 1.0690 140.2 22.1 .149 139
2024 12 05 02  01 57 58.084   +40 21 21.15  .10581 1.0690 140.2 22.1 .150 139